map of MSZ home
MSZ - Airport
Location
City:  Namibe, Namibe, Angola
ICAO:FNMO
IATA:MSZ

Details
Type:Airport (Aerodrome, Airfield)
Latitude:1515'40"S (-15.261221)
Longitude:1208'48"E (12.146756)
Datum:other
Elevation:210 ft (64 m)
Variation:7.34W (WMM2015 magnetic declination)
0.19 annual change
Runways:1
Longest:8202 × 148 ft (2500 × 45 m), paved

Time
Time Zone:UTC+1
Local Time:

Weather
METAR:FNMO 271600Z 27012KT 9999 BKN016 24/18 Q1010
TAF:FNMO 271100Z 2712/2724 27010KT 9999 BKN015
TEMPO 2714/2718 33015KT SCT015
BECMG 2718/2720 20005KT FEW010 BKN015 PROB30
TEMPO 2720/2724 9000 -DZ

Related Locations
Nearby:
Farthest:PHHF: 11830 mi / 19038 km
Tern Island [French Frigate Shoals Airport], HI, US

Find:

   beyond  
but within

Other Information
Maps:
NOTAMs:
Links:
Sources:

  
flag of Angola   

Sectional Chart

Flight Planning
at skyvector.com

Satellite Image

Google Maps Satellite view

 

Copyright © 2004-2017 Karl L. Swartz. All rights reserved.
The Great Circle Mapper name and logo are trademarks of the Great Circle Mapper.
All other trademarks mentioned herein belong to their respective owners.
Please see credits for attibutions and further copyright information.

  Follow gcmap on Facebook Follow gcmap on Twitter Follow gcmap on Google+ GCmap on LinkedIn

hCard Microformat

Geo Microformat